Flag for Mexico Weather past 2 weeks in Ojinaga, Chihuahua, Mexico

Now
55 °F

Broken clouds.


Feels Like: 50 °F
Forecast: 58 / 85 °F
Wind: 24 mph from Northeast

Location: Marfa Municipal Airport


UV Index: 7 (High)

Visibility: 10 mi


Pressure: 30.08 "Hg

Humidity: 88%

Dew point: 52 °F

Location of OjinagaLocation

Historic Weather in Ojinaga

°F

Ojinaga temperature yesterday

Maximum temperature yesterday: 75 °F (at 2:55 PM)
Minimum temperature yesterday: 39 °F (at 6:15 AM)
Average temperature yesterday: 60 °F

Past Weeks' High & Low Weather Summary

 TemperatureHumidityPressure
High82 °F (Apr 9, 1:35 PM)88% (Apr 19, 6:15 PM)30.40 "Hg (Apr 19, 6:15 PM)
Low19 °F (Apr 15, 6:15 AM)9% (Apr 9, 1:35 PM)29.79 "Hg (Apr 5, 4:35 PM)
Average57 °F29%30.08 "Hg
* Reported Apr 4 7:15 PM — Apr 19 7:35 PM, Ojinaga, Weather by CustomWeather, © 2014

Note: Actual official high and low records may vary slightly from our data, if they occured in-between our weather recording intervals... More about our weather records

Advertising

Historic Weather Conditions — Data for Previous 24 hours

 ConditionsComfort  
Time TempWeatherWind HumidityBarometerVisibility
7:35 PM
Apr 19
55 °FPartly sunny.20 mph88%30.08 "Hg10 mi
7:15 PM57 °FScattered clouds.18 mph77%30.06 "Hg10 mi
6:55 PM61 °FSunny.18 mph72%30.05 "Hg10 mi
6:35 PM57 °FPassing clouds.13 mph82%30.06 "Hg10 mi
6:15 PM55 °FThundershowers. Broken clouds.10 mph88%30.05 "Hg10 mi
5:55 PM55 °FThundershowers. Cloudy.10 mph82%30.06 "Hg10 mi
5:35 PM57 °FThundershowers. More clouds than sun.20 mph77%30.03 "Hg6 mi
5:15 PM73 °FThundershowers. Partly sunny.18 mph38%29.98 "Hg10 mi
4:55 PM73 °FBroken clouds.21 mph38%29.96 "Hg10 mi
4:35 PM73 °FPartly sunny.20 mph36%29.97 "Hg10 mi
4:15 PM75 °FPartly sunny.22 mph36%29.97 "Hg10 mi
3:55 PM75 °FPartly sunny.20 mph36%29.98 "Hg10 mi
3:35 PM79 °FPassing clouds.20 mph32%30.00 "Hg10 mi
3:15 PM79 °FSunny.14 mph32%30.03 "Hg10 mi
2:55 PM77 °FSunny.17 mph34%30.04 "Hg10 mi
2:35 PM75 °FSunny.13 mph36%30.06 "Hg10 mi
2:15 PM73 °FPassing clouds.13 mph36%30.09 "Hg10 mi
1:55 PM73 °FSunny.7 mph36%30.10 "Hg10 mi
1:35 PM75 °FSunny.9 mph36%30.10 "Hg10 mi
1:15 PM73 °FSunny.9 mph41%30.10 "Hg10 mi
12:55 PM70 °FSunny.3 mph46%30.12 "Hg10 mi
12:35 PM68 °FPassing clouds.7 mph49%30.14 "Hg10 mi
12:15 PM68 °FScattered clouds.5 mph49%30.15 "Hg10 mi
11:55 AM70 °FThundershowers. Passing clouds.10 mph46%30.16 "Hg10 mi
11:35 AM64 °FPartly sunny.7 mph64%30.17 "Hg10 mi
11:15 AM63 °FThundershowers. Partly sunny.8 mph68%30.17 "Hg10 mi
10:55 AM63 °FThunderstorms. Broken clouds.10 mph64%30.16 "Hg9 mi
10:35 AM64 °FScattered clouds.13 mph52%30.15 "Hg10 mi
10:15 AM63 °FScattered clouds.8 mph59%30.14 "Hg10 mi
9:55 AM63 °FOvercast.9 mph59%30.15 "Hg10 mi
9:35 AM63 °FOvercast.7 mph56%30.16 "Hg10 mi
9:15 AM63 °FPartly sunny.8 mph56%30.15 "Hg10 mi
8:55 AM61 °FScattered clouds.6 mph63%30.15 "Hg10 mi
8:35 AM61 °FPassing clouds.8 mph59%30.15 "Hg10 mi
8:15 AM61 °FSunny.9 mph59%30.15 "Hg10 mi
7:55 AM57 °FSunny.8 mph63%30.14 "Hg10 mi
7:35 AM54 °FSunny.No wind72%30.15 "Hg10 mi
7:15 AM54 °FPassing clouds.6 mph72%30.14 "Hg10 mi
6:55 AM54 °FPassing clouds.6 mph72%30.14 "Hg10 mi
6:35 AM52 °FPassing clouds.6 mph72%30.14 "Hg10 mi
6:15 AM54 °FClear.No wind72%30.14 "Hg10 mi
5:55 AM54 °FClear.5 mph72%30.12 "Hg10 mi
5:35 AM52 °FClear.5 mph72%30.12 "Hg10 mi
5:15 AM54 °FClear.5 mph72%30.12 "Hg10 mi
4:55 AM54 °FClear.6 mph72%30.11 "Hg10 mi
4:35 AM52 °FPassing clouds.5 mph77%30.11 "Hg10 mi
4:15 AM52 °FPassing clouds.No wind77%30.11 "Hg10 mi
3:55 AM52 °FPassing clouds.No wind77%30.11 "Hg10 mi
3:35 AM54 °FPassing clouds.No wind72%30.10 "Hg10 mi
2:55 AM55 °FPassing clouds.3 mph67%30.10 "Hg10 mi
2:35 AM54 °FPassing clouds.No wind77%30.10 "Hg10 mi
2:15 AM54 °FPassing clouds.No wind77%30.11 "Hg10 mi
1:55 AM54 °FPassing clouds.No wind77%30.11 "Hg10 mi
1:35 AM54 °FPassing clouds.No wind77%30.12 "Hg10 mi
1:15 AM55 °FPassing clouds.3 mph72%30.13 "Hg10 mi
12:55 AM55 °FClear.6 mph72%30.14 "Hg10 mi
12:35 AM54 °FClear.7 mph77%30.15 "Hg10 mi
12:15 AM55 °FClear.3 mph72%30.15 "Hg10 mi
11:55 PM
Apr 18
55 °FClear.5 mph72%30.15 "Hg10 mi
11:35 PM55 °FClear.6 mph72%30.15 "Hg10 mi
11:15 PM57 °FClear.7 mph67%30.14 "Hg10 mi
10:55 PM57 °FClear.7 mph67%30.15 "Hg10 mi
10:35 PM57 °FClear.6 mph67%30.15 "Hg10 mi
10:15 PM57 °FClear.5 mph72%30.15 "Hg10 mi
9:55 PM59 °FClear.No wind68%30.14 "Hg10 mi
9:15 PM61 °FClear.7 mph63%30.14 "Hg10 mi
8:55 PM63 °FClear.12 mph59%30.13 "Hg10 mi
8:35 PM63 °FClear.12 mph59%30.12 "Hg10 mi
8:15 PM63 °FSunny.14 mph59%30.12 "Hg10 mi
Weather by CustomWeather, © 2014

See weather overview